Погода в Сухиничи

Погода в Сухиничи : погода сейчас, прогноз погоды и архив. Всё, что Вы хотите узнать о погоде в Сухиничи!

Хотите узнать прогноз погоды в Сухиничи? Тогда Вам сюда: Погода в Сухиничи

Поиск расширенной информации на нашем сайте:

Полезная информация: труба лежалая

Другие новости

Новости СМИ2

Главная страница сайта

Новости сайта

02.10.2013

Напоминаем, что на нашем новом сайте вы можете получить высокодетализированные прогнозы погоды по пунктам России, СНГ и мира (включающие важные для авиации метеовеличины, такие как направление и скорость ветра, видимость, явления погоды, количество и форма облачности, нижняя и верхняя граница облачности), а также ознакомиться с разнообразными материалами по авиационной метеорологии и подборкой полезных ссылок на эту тему.

Сайт Метеоцентр.Азия посвящён разработке технологий оптимизации авиаметеорологического обслуживания, включая проектирование и перспективное создание нескольких автоматизированных авиаметеорологических систем:
- система выпуска высокодетальных прогностических карт явлений погоды для нижнего воздушного пространства по России и ближнему зарубежью;
- система верификации прогнозов TAF (выпускаемых синоптиками официальных АМСГ РФ и ближнего зарубежья) и AUTOTAF (выпускаемых сайтом Метеоцентр.Азия) - выявление ошибок, онлайн-сопоставление с фактической погодой METAR, автоматическое внесение коррективов в прогнозы при резком отклонении фактической погоды от прогноза, подсчёт оправдываемости прогнозов по элементам и в целом;
- система обработки, анализа и отображения авиаметеорологической информации для применения провайдерами метеорологической информации.

Рекомендуем: стриптиз бары москвы

Погода в Сухиничи - сегодня

Время (UTC), дата Ветер
(°,м/с) 
Видим.   Явления Облачность Т
(°С)
Тd
(°С)
f(%) Тe
(°С)
Pmin
(гПа)
dP
(гПа)
Po
(мм)
O2
(г/м3)
Тmin Tmax R s Состояние
почвы
21 17.01.17 250 (З) 6000 м  дымка  10/10 2000 м 
[Ns]
-4.7 -5.3 96 -6  1035.5  0.4  754  310           
00 18.01.17 270 (З) 8000 м  дымка  10/10 2000 м 
[Ns]
-4.8 -5.5 95 -6  1036.3  0.7  754  310           
03 18.01.17 280 (З) 8000 м  дымка  10/10 2000 м 
[Ac As]
-5.3 -6 95 -5  1036.3  754  311  -5.3         
06 18.01.17 270 (З) 6000 м  слаб. снег  10/10 2000 м 
[Ns]
-5.5 -6.3 94 -5  1037.3  755  311  -5.5    0.2  30  равномерный
сухой снег
100% 
09 18.01.17 280 (З) 17000 м  {снег}  4/0 верхняя 
[Ci fib]
-5.1 -7.3 85 -6  1038.2  0.9  755  311           
12 18.01.17 280 (З) 25000 м  {снег}  3/0 верхняя 
[Ci fib]
-4 -8.2 73 -5  1037.6  -0.5  755  310           
15 18.01.17 250 (З) 10 км    ясно 
-8.7 -9.9 91 -8  1038.1  0.1  755  315      0.2     
18 18.01.17 260 (З) 10 км    10/0 верхняя 
[Cs]
-7.2 -8.6 90 -9  1037.9  0.1  755  313    -3.4  0.0     
21 18.01.17 250 (З) н/о    н/о 
-11.9 -12.5 95 -14  1037.9  -0.7  755  319           
00 19.01.17 260 (З) 7000 м  дымка  10/0 верхняя 
[Cs]
-8.6 -9.6 92 -13  1036.6  -0.9  754  315           
03 19.01.17 250 (З) 8000 м  дымка  3/0 верхняя 
[Ci fib]
-9.6 -10.5 93 -13  1035.3  -1.4  753  315  -12.5         
06 19.01.17 250 (З) 10 км    9/9 2000 м средняя 
[Ac As]
-8.2 -9.4 91 -11  1033.8  -1.3  752  313  -12.5      30  равномерный
сухой снег
100% 
09 19.01.17 250 (З) 18000 м    9/9 2000 м средняя 
[Ac As]
-6.6 -8.9 84 -10  1032  -1.6  751  311           
12 19.01.17 240 (ЮЗ) 22000 м    9/9 2000 м средняя 
[Ac As]
-5 -8.3 78 -7  1029.1  -2.6  749  308           
15 19.01.17 250 (З) 5{11}  15000 м    10/10 2000 м 
[Ns]
-5.3 -7.2 86 -9  1027.3  -1.8  747  308           
18 19.01.17 250 (З) 10 км    10/10 2000 м 
[Ns]
-5.9 -7.5 88 -10  1024.9  -2.2  746  308    -4.9       
21 19.01.17 260 (З) 5{12}  10 км  позёмок{снег}  10/10 2000 м 
[Ns]
-6.5 -8.1 88 -11  1023.6  -1.5  745  308           
00 20.01.17 260 (З) 5{11}  10 км  позёмок{снег}  10/10 2000 м 
[Ns]
-6.5 -8.3 87 -11  1021.2  -2.4  743  307           
03 20.01.17 260 (З) 5{11}  10 км  позёмок  10/10 2000 м 
[Ns]
-6.3 -7.5 91 -10  1019.1  -2  741  307  -6.6    0.2     
06 20.01.17 260 (З) 6000 м  позёмок  10/10 600 м 
[St]
-5.3 -6.1 94 -9  1019  0.1  742  305  -6.6    0.2  29  равномерный
сухой снег
100% 
09 20.01.17 270 (З) 12000 м    9/9 600 м 
[Sc]
-3.4 -5.1 88 -6  1019.2  0.3  742  303           
12 20.01.17 280 (З) 16000 м    9/9 600 м 
[Sc]
-1.7 -3.9 85 -4  1018.3  -0.7  741  301           
15 20.01.17 290 (З) 20000 м    9/6 600 м средняя, верхняя 
[Sc|Ac trans|Ci fib]
-1.1 -4.3 79 -3  1018.7  0.5  742  300           
18 20.01.17 270 (З) 16000 м    9/9 600 м 
[Sc]
-2.6 -4.6 86 -4  1018.7  -0.1  742  302    -0.7       
21 20.01.17 270 (З) 10 км    9/9 2000 м средняя 
[Ac As]
-2.8 -4.5 88 -4  1017.7  -1  741  302           
Время (UTC), дата Ветер
(°,м/с) 
Видим.   Явления Облачность Т
(°С)
Тd
(°С)
f(%) Тe
(°С)
Pmin
(гПа)
dP
(гПа)
Po
(мм)
O2
(г/м3)
Тmin Tmax R s Состояние
почвы

Для получения пояснительной информации подведите курсор к названию столбца.

ПОГОДА в Сухиничи - архив

Всё, что Вы хотите узнать о погоде в Сухиничи - удобно и подробно!

Выберите нужную дату (начиная с 1 января 2015* года) и нажмите кнопку "Найти".
Будут отображены архивные сводки погоды по пункту Сухиничи, начиная с указанной даты.


Отображать данные в формате CSV (для использования в таблицах Excel)


Внимание! Наш архив погоды предназначен исключительно для личного некоммерческого использования в познавательных целях. Если Вам необходимы официальные справки о состоянии погоды (для производственных, юридических, коммерческих и т.п. целей), обращайтесь в органы Росгидромета.

*Примечание: данная дата относится к архиву по метеостанциям СССР (Россия, СНГ, Балтия).
Архив по метеостанциям Зарубежной Европы и Азии (кроме Китая) хранится 10 дней, по другим регионам земного шара (Китай, Африка, Америка, Австралия, Океания) - 1 день.

Сухиничи - район местоположения метеостанции


Название, широта, долгота, высота метеостанции:
Сухиничи 54.1°ш. 35.3°д. 238 м над ур. моря [Российская Федерация]

Дополнительная информация

В oтличие oт бoльшинства пoгoдных сайтoв мы публикуем пoдрoбную метеoинфoрмацию в детальнoм прoфессиoнальнoм фoрмате.

Характеристики температуры и влажнoсти вoздуха измеряются на высoте 2 м в тени вдали oт зданий и деревьев.
Скoрoсть ветра измеряется на высoте 10 м (на урoвне рoста челoвека скoрoсть ветра ниже в 1.5-2 раза). Если метеoстанция нахoдится в гoрoде или в лесу, тo скoрoсть ветра занижена на 2-4 м/с пo сравнению с oткрытым местoм. Скoрoсть ветра над акватoриями крупных рек и oзёр, а также на вершинах хoлмoв на 2-5 м/с выше, чем в oбычных услoвиях.
Атмoсфернoе давление в разных тoчках местнoсти мoжет значительнo oтличаться oт давления на метеoстанции, в зависимoсти oт услoвий рельефа (при пoдъёме на 10 м давление пoнижается примернo на 1 мм рт.ст.).